Waarnemingen

Advertentie
Mijn weer
Emden, Duitsland (10200): temperatuur & dauwpunt: 11.01.2019 02:00:00 - 17.01.2019 02:00:00 (CET)Emden, Duitsland (10200): temperatuur 5cm & temperatuur -5cm: 11.01.2019 02:00:00 - 17.01.2019 02:00:00 (CET)Emden, Duitsland (10200): temperatuur -20cm & temperatuur -100cm: 11.01.2019 02:00:00 - 17.01.2019 02:00:00 (CET)Emden, Duitsland (10200): windsnelheid & windstoten: 11.01.2019 02:00:00 - 17.01.2019 02:00:00 (CET)Emden, Duitsland (10200): windrichting: 11.01.2019 02:00:00 - 17.01.2019 02:00:00 (CET)Emden, Duitsland (10200): luchtdruk: 11.01.2019 02:00:00 - 17.01.2019 02:00:00 (CET)Emden, Duitsland (10200): zicht: 11.01.2019 02:00:00 - 17.01.2019 02:00:00 (CET)Emden, Duitsland (10200): Zonneschijnduur: 11.01.2019 02:00:00 - 17.01.2019 02:00:00 (CET)Emden, Duitsland (10200): neerslag: 11.01.2019 02:00:00 - 17.01.2019 02:00:00 (CET)
Datum & Tijd tt [°C] td [°C] tt 5cm [°C] tt -5cm [°C] tt -20cm [°C] tt -100cm [°C] ff [km/u] ff [kn] fx [km/u] fx [kn] dd ppp [hPa] vv [km] sd [min] rr [mm]
17.01.2019 02:00:00 4,7 2,4 4,0 4,7 5,8 8,1 18 10 28 15 ZW 997,2 75 0 0,0
17.01.2019 01:00:00 4,6 2,9 4,1 5,0 5,8 8,1 11 6 32 18 WZW 996,9 34 0 0,6
17.01.2019 00:00:00 5,2 3,9 4,8 5,1 5,8 8,1 21 11 46 25 WZW 996,7 11 0 0,0
16.01.2019 23:00:00 5,1 3,8 4,7 5,1 5,9 8,1 22 12 41 22 ZW 997,1 3,3 0 0,0
16.01.2019 22:00:00 5,0 3,4 4,6 5,2 5,9 8,1 24 13 43 23 ZZW 997,5 14 0 0,0
16.01.2019 21:00:00 5,0 3,4 4,5 5,3 5,9 8,1 29 16 50 27 ZZW 998,1 10 0 0,0
16.01.2019 20:00:00 5,4 3,4 4,9 5,4 6,0 8,1 29 16 46 25 ZZW 998,8 21 0 0,0
16.01.2019 19:00:00 5,4 3,6 5,0 5,6 6,0 8,1 28 15 44 24 ZZW 999,4 16 0 0,0
16.01.2019 18:00:00 5,8 4,1 5,5 5,8 6,0 8,1 24 13 44 24 ZZW 1000,4 15 0 0,0
16.01.2019 17:00:00 5,8 4,3 5,4 5,9 6,0 8,1 24 13 47 25 ZZW 1001,2 14 0 0,1
16.01.2019 16:00:00 5,9 4,7 5,6 6,2 5,9 8,1 24 13 46 25 ZZW 1001,8 9 0 0,1
16.01.2019 15:00:00 6,2 4,9 6,0 6,4 5,9 8,1 23 12 47 25 ZW 1002,3 8 0 0,1
16.01.2019 14:00:00 6,5 5,1 6,3 6,6 5,9 8,1 26 14 46 25 ZZW 1002,9 12 0 0,0
16.01.2019 13:00:00 6,8 5,5 6,9 6,6 5,8 8,1 26 14 47 25 ZW 1003,6 18 0 0,0
16.01.2019 12:00:00 6,9 5,8 6,8 6,4 5,8 8,1 23 13 40 22 ZW 1004,5 8 0 0,0
16.01.2019 11:00:00 7,8 5,7 7,6 6,3 5,7 8,1 22 12 40 22 ZW 1005,2 28 0 -
16.01.2019 10:00:00 7,8 5,5 7,2 6,0 5,7 8,1 20 11 37 20 ZW 1005,7 17 0 -
16.01.2019 09:00:00 7,7 4,5 7,3 5,9 5,7 8,1 19 11 37 20 ZW 1005,8 55 0 -
16.01.2019 08:00:00 7,8 4,7 7,3 6,0 5,7 8,1 19 11 35 19 ZW 1006,1 48 0 -
16.01.2019 07:00:00 7,9 5,1 7,5 6,1 5,6 8,2 21 11 35 19 ZW 1006,6 41 0 -
16.01.2019 06:00:00 7,9 5,4 7,6 6,0 5,6 8,2 18 10 36 20 ZW 1007,1 31 0 -
16.01.2019 05:00:00 8,0 5,7 7,6 6,0 5,6 8,2 20 11 32 17 WZW 1007,6 27 0 -
16.01.2019 04:00:00 7,8 5,5 7,3 5,9 5,5 8,2 17 9 32 18 WZW 1008,3 28 0 -
16.01.2019 03:00:00 7,5 5,3 7,1 5,9 5,5 8,2 16 9 31 17 ZW 1008,8 27 0 -
16.01.2019 02:00:00 7,5 5,2 7,0 5,8 5,5 8,2 16 8 37 20 ZW 1009,1 21 0 -
16.01.2019 01:00:00 7,5 5,3 7,0 5,8 5,5 8,2 21 11 34 18 WZW 1009,5 20 0 -
16.01.2019 00:00:00 7,5 5,3 6,9 5,8 5,4 8,2 19 10 37 20 WZW 1009,9 28 0 -
15.01.2019 23:00:00 7,4 5,3 6,7 5,8 5,4 8,2 21 11 37 20 WZW 1010,4 36 0 -
15.01.2019 22:00:00 7,3 5,5 6,8 5,9 5,3 8,2 21 11 36 19 WZW 1010,5 29 0 -
15.01.2019 21:00:00 7,2 5,9 6,7 5,9 5,3 8,2 21 11 38 20 WZW 1010,6 5 0 -
15.01.2019 20:00:00 7,0 6,2 6,7 5,9 5,2 8,2 21 11 38 21 WZW 1010,6 9 0 -
15.01.2019 19:00:00 6,9 6,1 6,7 5,9 5,1 8,2 21 11 40 21 WZW 1010,4 6 0 -
15.01.2019 18:00:00 7,0 6,2 6,7 5,9 5,1 8,2 22 12 36 20 WZW 1010,5 13 0 -
15.01.2019 17:00:00 7,1 6,1 6,8 5,8 5,0 8,2 22 12 40 21 WZW 1010,8 11 0 -
15.01.2019 16:00:00 7,0 6,2 6,8 5,9 4,9 8,2 23 13 42 23 W 1010,7 4,3 0 -
15.01.2019 15:00:00 7,8 5,4 7,6 5,8 4,8 8,2 28 15 46 25 W 1010,8 32 0 -
15.01.2019 14:00:00 7,6 5,1 7,5 5,6 4,7 8,2 23 13 42 23 W 1011,0 33 0 -
15.01.2019 13:00:00 7,4 4,9 7,3 5,4 4,6 8,2 24 13 44 24 WZW 1011,6 29 0 -
15.01.2019 12:00:00 7,2 4,9 7,2 5,1 4,5 8,2 23 13 42 23 W 1012,1 30 0 -
15.01.2019 11:00:00 6,9 4,7 6,8 4,7 4,4 8,2 22 12 43 23 WZW 1012,4 26 0 -
15.01.2019 10:00:00 6,4 4,7 6,1 4,3 4,3 8,2 21 12 39 21 WZW 1012,7 20 0 -
15.01.2019 09:00:00 6,2 4,3 5,9 4,0 4,3 8,2 21 11 37 20 WZW 1012,7 18 0 -
15.01.2019 08:00:00 5,9 4,1 5,4 3,8 4,3 8,2 19 11 40 21 WZW 1012,9 22 0 -
15.01.2019 07:00:00 5,7 3,4 5,4 3,3 4,2 8,2 22 12 38 21 WZW 1013,1 34 0 -
15.01.2019 06:00:00 5,2 2,5 4,8 3,0 4,3 8,2 22 12 39 21 WZW 1013,7 51 0 -
15.01.2019 05:00:00 4,7 1,0 4,3 2,6 4,3 8,2 21 11 38 20 WZW 1014,6 60 0 -
15.01.2019 04:00:00 4,3 0,1 3,6 2,5 4,3 8,2 18 10 35 19 WZW 1014,9 52 0 -
15.01.2019 03:00:00 3,8 0,1 3,2 2,3 4,4 8,2 19 10 33 18 W 1015,3 45 0 -
15.01.2019 02:00:00 3,5 0,1 2,8 2,2 4,4 8,2 17 9 29 16 WZW 1015,9 35 0 -
15.01.2019 01:00:00 3,4 -0,7 2,6 2,0 4,5 8,2 13 7 19 11 WZW 1016,1 34 0 -
15.01.2019 00:00:00 2,7 -1,3 1,2 2,1 4,6 8,2 14 8 23 12 W 1016,4 37 0 -
14.01.2019 23:00:00 3,6 -0,8 1,8 2,7 4,6 8,2 15 8 40 21 W 1016,3 39 0 -
14.01.2019 22:00:00 5,2 -2,6 4,1 2,8 4,7 8,2 22 12 37 20 WNW 1016,2 41 0 -
14.01.2019 21:00:00 4,6 -1,0 3,4 2,7 4,7 8,2 18 10 39 21 WNW 1015,7 33 0 -
14.01.2019 20:00:00 4,8 -1,7 3,6 2,8 4,8 8,2 23 12 43 23 NW 1015,3 32 0 -
14.01.2019 19:00:00 4,3 -1,1 3,0 2,6 4,9 8,2 22 12 39 21 NW 1014,7 24 0 -
14.01.2019 18:00:00 3,6 -1,2 2,7 2,8 4,9 8,2 23 13 44 24 WNW 1014,2 43 0 -
14.01.2019 17:00:00 4,1 -2,1 3,2 3,0 5,0 8,2 27 15 42 23 NW 1013,5 43 0 -
14.01.2019 16:00:00 3,3 -1,1 2,6 3,4 5,0 8,2 26 14 60 32 NW 1013,0 39 21 -
14.01.2019 15:00:00 3,9 -1,6 3,0 3,8 5,0 8,2 28 15 55 30 WNW 1012,1 36 20 -
14.01.2019 14:00:00 4,3 -1,2 4,9 3,9 5,0 8,2 27 15 62 33 NW 1011,2 40 41 -
14.01.2019 13:00:00 4,1 -2,4 3,7 3,8 5,0 8,2 35 19 62 33 NW 1010,4 50 20 -
14.01.2019 12:00:00 3,8 -0,4 3,3 3,4 5,1 8,2 31 17 66 35 NW 1010,2 31 32 -
14.01.2019 11:00:00 4,1 -0,3 3,8 3,0 5,2 8,2 31 17 65 35 WNW 1009,9 42 43 1,5
14.01.2019 10:00:00 3,8 -0,7 4,0 2,6 5,3 8,2 32 17 55 30 NW 1009,1 30 30 0,0
14.01.2019 09:00:00 2,5 -1,3 1,9 2,8 5,4 8,2 50 27 71 38 NW 1008,7 20 0 0,0
14.01.2019 08:00:00 3,5 -1,2 2,0 3,1 5,5 8,2 32 17 61 33 NW 1007,5 54 0 0,1
14.01.2019 07:00:00 3,4 -0,2 1,8 3,4 5,6 8,2 28 15 57 31 NW 1006,8 47 0 0,0
14.01.2019 06:00:00 4,2 -0,3 2,8 3,5 5,7 8,2 31 17 57 31 NW 1006,0 59 0 0,0
14.01.2019 05:00:00 5,1 -0,3 3,4 3,6 5,8 8,2 21 11 31 17 WNW 1004,9 33 0 0,0
14.01.2019 04:00:00 5,5 0,3 4,6 4,0 5,9 8,2 22 12 36 20 NW 1004,5 26 0 0,0
14.01.2019 03:00:00 5,4 -0,2 4,2 3,9 6,1 8,2 25 13 39 21 NW 1003,7 25 0 0,0
14.01.2019 02:00:00 5,4 0,3 3,7 4,2 6,2 8,2 27 15 40 22 NW 1002,2 25 0 0,0
14.01.2019 01:00:00 5,7 0,7 3,7 4,7 6,2 8,2 29 15 44 24 NW 1001,1 26 0 0,0
14.01.2019 00:00:00 6,4 2,3 4,7 5,4 6,3 8,2 29 16 42 23 NW 999,7 21 0 0,0
13.01.2019 23:00:00 6,7 4,0 5,7 5,7 6,3 8,2 29 16 61 33 WNW 998,4 25 0 0,0
13.01.2019 22:00:00 7,3 4,3 6,3 5,9 6,3 8,2 30 16 52 28 WNW 997,6 20 0 0,0
13.01.2019 21:00:00 7,5 4,3 6,4 5,8 6,4 8,2 33 18 53 28 WNW 997,1 22 0 0,0
13.01.2019 20:00:00 7,2 4,0 5,9 5,8 6,4 8,2 32 18 51 27 W 996,3 22 0 0,0
13.01.2019 19:00:00 7,5 4,3 6,0 6,2 6,4 8,2 31 17 56 30 WNW 996,0 21 0 0,1
13.01.2019 18:00:00 7,7 5,6 7,0 6,4 6,4 8,2 30 16 49 26 W 995,6 17 0 0,1
13.01.2019 17:00:00 7,5 5,0 6,6 6,9 6,4 8,2 30 16 61 33 W 995,5 22 0 0,0
13.01.2019 16:00:00 7,9 5,9 7,3 7,4 6,3 8,2 36 20 68 37 WNW 995,6 3,8 0 0,0
13.01.2019 15:00:00 8,3 7,3 8,1 7,4 6,2 8,2 41 22 56 30 W 995,8 4,8 0 0,1
13.01.2019 14:00:00 8,4 7,1 8,1 7,4 6,2 8,2 34 18 50 27 W 996,8 11 0 0,0
13.01.2019 13:00:00 8,4 7,5 8,1 7,3 6,1 8,2 35 19 53 29 W 998,1 4,0 0 0,0
13.01.2019 12:00:00 8,2 7,4 8,1 7,2 6,0 8,2 34 18 54 29 W 999,2 4,0 0 0,1
13.01.2019 11:00:00 8,6 7,4 8,3 7,1 6,0 8,2 33 18 50 27 W 1000,1 13 0 0,0
13.01.2019 10:00:00 8,1 7,4 7,9 6,9 5,9 8,2 34 18 52 28 W 1000,6 3,2 0 0,0
13.01.2019 09:00:00 8,3 7,4 8,0 6,6 5,8 8,2 36 19 50 27 W 1000,9 4,0 0 0,0
13.01.2019 08:00:00 7,9 7,3 7,8 6,4 5,8 8,3 20 11 31 17 W 1001,7 7 0 0,1
13.01.2019 07:00:00 7,6 6,9 7,4 6,2 5,8 8,3 16 9 29 15 WZW 1002,7 9 0 0,1
13.01.2019 06:00:00 7,3 6,6 7,0 6,0 5,8 8,3 16 9 30 16 WZW 1003,8 10 0 0,0
13.01.2019 05:00:00 7,2 6,3 6,9 5,8 5,8 8,3 16 8 29 16 WZW 1005,3 11 0 0,0
13.01.2019 04:00:00 6,7 5,5 6,4 5,5 5,8 8,3 16 8 33 18 W 1006,3 21 0 0,0
13.01.2019 03:00:00 6,7 5,3 6,0 5,5 5,8 8,3 17 9 34 19 W 1006,4 20 0 0,0
13.01.2019 02:00:00 7,1 5,2 6,0 5,7 5,7 8,3 26 14 47 25 W 1007,3 23 0 0,0
13.01.2019 01:00:00 7,5 5,4 6,8 5,8 5,7 8,3 27 15 48 26 W 1007,6 24 0 0,0
13.01.2019 00:00:00 7,3 5,2 6,7 5,7 5,7 8,3 27 15 49 26 W 1007,6 24 0 0,0
12.01.2019 23:00:00 7,6 5,2 6,9 5,8 5,7 8,3 32 18 47 25 W 1007,9 25 0 0,0
12.01.2019 22:00:00 7,5 5,1 6,7 5,7 5,7 8,3 31 17 50 27 W 1008,0 22 0 0,1
12.01.2019 21:00:00 7,4 5,0 6,7 5,6 5,7 8,3 31 17 46 25 W 1008,3 25 0 0,1
12.01.2019 20:00:00 7,0 4,6 6,1 5,6 5,7 8,3 29 15 44 24 W 1008,5 25 0 0,0
12.01.2019 19:00:00 7,1 4,5 6,0 5,6 5,7 8,3 31 17 46 25 W 1008,6 23 0 0,0
12.01.2019 18:00:00 6,8 5,0 6,0 5,5 5,7 8,3 27 15 39 21 W 1008,7 20 0 0,0
12.01.2019 17:00:00 6,4 4,8 5,2 5,4 5,7 8,3 24 13 39 21 W 1008,8 21 0 0,1
12.01.2019 16:00:00 7,1 4,8 6,0 5,9 5,7 8,3 27 15 42 23 W 1009,4 26 0 0,0
12.01.2019 15:00:00 7,1 5,5 6,4 6,5 5,6 8,3 26 14 51 27 W 1009,6 20 0 0,0
12.01.2019 14:00:00 7,5 6,1 7,3 6,8 5,5 8,3 27 15 53 29 W 1010,0 11 0 0,0
12.01.2019 13:00:00 8,1 6,6 8,1 6,5 5,5 8,3 35 19 48 26 W 1010,6 29 0 0,0
12.01.2019 12:00:00 7,1 6,4 7,1 5,9 5,4 8,3 22 12 37 20 WZW 1011,5 2,3 0 0,0
12.01.2019 11:00:00 6,6 5,6 6,4 5,5 5,4 8,3 19 10 41 22 WZW 1012,9 3,6 0 0,0
12.01.2019 10:00:00 6,7 4,8 6,5 5,3 5,4 8,3 21 11 39 21 WZW 1013,8 16 0 0,1
12.01.2019 09:00:00 6,3 3,8 5,7 5,0 5,4 8,3 19 10 34 19 WZW 1015,2 14 0 0,0
12.01.2019 08:00:00 6,2 2,7 5,4 5,1 5,4 8,3 19 11 30 16 WZW 1015,8 63 0 0,0
12.01.2019 07:00:00 5,9 3,1 5,0 5,2 5,4 8,3 17 9 31 17 WZW 1016,8 35 0 0,0
12.01.2019 06:00:00 6,4 4,2 5,7 5,3 5,4 8,3 23 12 35 19 W 1017,8 19 0 0,0
12.01.2019 05:00:00 6,5 4,6 5,9 5,3 5,4 8,3 19 11 31 17 W 1018,3 33 0 0,0
12.01.2019 04:00:00 6,4 4,8 5,8 5,3 5,5 8,3 12 6 36 19 W 1018,8 40 0 0,0
12.01.2019 03:00:00 6,3 5,4 5,9 5,3 5,5 8,3 23 12 35 19 W 1019,4 11 0 0,1
12.01.2019 02:00:00 6,0 5,0 5,5 5,4 5,4 8,3 16 9 29 16 W 1019,9 31 0 0,0
12.01.2019 01:00:00 6,2 5,1 5,8 5,6 5,4 8,3 16 8 29 15 W 1020,4 29 0 0,0
12.01.2019 00:00:00 6,6 5,4 6,2 5,7 5,4 8,3 17 9 34 19 W 1020,6 31 0 0,0
11.01.2019 23:00:00 6,9 5,4 6,4 5,8 5,4 8,3 21 11 40 21 WNW 1020,6 26 0 0,0
11.01.2019 22:00:00 7,3 5,1 6,8 5,7 5,4 8,4 23 12 41 22 WNW 1020,6 21 0 0,0
11.01.2019 21:00:00 7,0 5,2 6,5 5,6 5,3 8,4 20 11 37 20 WNW 1020,3 21 0 0,0
11.01.2019 20:00:00 7,4 4,9 6,7 5,8 5,3 8,4 19 10 38 21 WNW 1020,1 21 0 0,0
11.01.2019 19:00:00 7,4 4,6 6,6 5,8 5,3 8,4 23 12 40 22 WNW 1020,0 22 0 0,0
11.01.2019 18:00:00 7,5 5,1 6,7 5,8 5,2 8,4 26 14 41 22 WNW 1020,0 23 0 0,0
11.01.2019 17:00:00 7,5 5,4 6,5 6,1 5,1 8,4 25 13 41 22 WNW 1019,9 25 0 0,0
11.01.2019 16:00:00 7,7 5,6 7,1 6,5 5,0 8,4 23 12 40 22 NW 1019,9 24 1 0,0
11.01.2019 15:00:00 7,7 6,0 7,3 6,7 4,9 8,4 25 14 45 24 WNW 1019,9 25 0 0,0
11.01.2019 14:00:00 7,7 6,2 7,5 6,8 4,7 8,4 29 16 46 25 NW 1020,0 7 0 0,0
11.01.2019 13:00:00 7,9 6,0 8,1 6,4 4,6 8,4 22 12 41 22 WNW 1020,3 31 1 0,0
11.01.2019 12:00:00 7,5 5,9 7,4 5,8 4,5 8,4 22 12 37 20 WNW 1020,8 32 0 0,0
11.01.2019 11:00:00 7,2 6,0 6,9 5,4 4,4 8,4 18 10 33 18 W 1020,8 22 0 0,0
11.01.2019 10:00:00 6,9 6,1 6,7 5,0 4,3 8,4 19 10 35 19 WNW 1020,8 12 0 0,1
11.01.2019 09:00:00 6,8 5,9 6,5 4,7 4,3 8,4 16 9 32 17 WNW 1020,9 3,3 0 0,0
11.01.2019 08:00:00 6,8 5,6 6,3 4,5 4,2 8,4 14 8 24 13 WNW 1021,0 20 0 0,0
11.01.2019 07:00:00 6,3 5,4 6,0 4,1 4,1 8,4 13 7 21 11 W 1021,3 12 0 0,0
11.01.2019 06:00:00 5,7 5,0 5,0 4,2 4,1 8,4 10 6 19 11 W 1021,4 12 0 0,0
11.01.2019 05:00:00 6,3 5,9 6,1 4,2 4,0 8,4 13 7 18 10 W 1021,9 2,4 0 0,0
11.01.2019 04:00:00 5,6 5,3 5,6 4,0 4,0 8,4 11 6 17 9 W 1022,2 1,9 0 0,1
11.01.2019 03:00:00 5,0 4,6 5,0 3,8 3,9 8,4 12 6 19 10 WZW 1022,3 1,4 0 0,0
11.01.2019 02:00:00 4,5 4,0 4,5 3,6 3,9 8,4 11 6 22 12 WZW 1022,4 1,8 0 0,0

tt = temperatuur
td = dauwpunt
tt 5cm = temperatuur 5cm
tt -5cm = temperatuur -5cm
tt -20cm = temperatuur -20cm
tt -100cm = temperatuur -100cm
ff = windsnelheid
fx = windstoten
dd = windrichting
ppp = luchtdruk
vv = zicht
sd = Zonneschijnduur
rr = neerslag

Weerstations in de omgeving